EW4831 Weather Reports


time (UTC)temp
C
wind
direction
speed
KPH
gust
KPH
rain 1hr
cm
rain 24hr
cm
rain mn
cm
humidity
%
barometer
mb
20260503203038 29 331 1.6 9.7 0.00 0.00 0.00 30 1009.6
20260503201635 29 1 1.6 11.3 0.00 0.00 0.00 32 1009.8
20260503200032 28 101 1.6 16.1 0.00 0.00 0.00 34 1010.0
20260503194532 28 30 1.6 11.3 0.00 0.00 0.00 33 1010.1
20260503193038 28 155 0.0 9.7 0.00 0.00 0.00 34 1010.3
20260503191525 28 103 1.6 9.7 0.00 0.00 0.00 35 1010.5
20260503190021 27 68 1.6 6.4 0.00 0.00 0.00 36 1010.6
20260503184523 26 117 1.6 6.4 0.00 0.00 0.00 39 1010.8
20260503183013 25 89 0.0 8.0 0.00 0.00 0.00 44 1011.0
20260503181636 25 116 0.0 4.8 0.00 0.00 0.00 45 1011.2
20260503180015 24 137 0.0 4.8 0.00 0.00 0.00 47 1011.3
20260503174505 23 256 3.2 11.3 0.00 0.00 0.00 46 1011.5
20260503173004 23 37 0.0 8.0 0.00 0.00 0.00 49 1011.6
20260503171559 23 113 0.0 3.2 0.00 0.00 0.00 50 1011.7
20260503081525 13 349 0.0 0.0 0.00 0.03 0.00 89 1012.5
20260503071518 13 349 0.0 0.0 0.00 0.03 0.00 87 1012.6
20260503054513 15 351 0.0 0.0 0.00 0.03 0.03 81 1012.3
20260503053013 16 82 0.0 6.4 0.00 0.03 0.03 80 1012.4
20260503051515 15 189 0.0 0.0 0.00 0.03 0.03 82 1012.2
20260503050018 16 155 0.0 0.0 0.00 0.03 0.03 81 1012.8
20260503044513 16 120 0.0 1.6 0.00 0.03 0.03 81 1012.6
20260503043010 16 276 0.0 0.0 0.00 0.03 0.03 81 1012.4
20260503041511 16 275 0.0 3.2 0.00 0.03 0.03 81 1012.5
20260503040009 16 344 0.0 1.6 0.00 0.03 0.03 79 1012.6
20260503034508 16 344 0.0 1.6 0.00 0.03 0.03 78 1012.5
20260503033007 17 344 0.0 4.8 0.00 0.03 0.03 76 1012.3
20260503031507 17 342 0.0 3.2 0.00 0.03 0.03 75 1012.1
20260503030006 18 161 0.0 0.0 0.00 0.03 0.03 72 1012.3
20260503024505 18 186 0.0 4.8 0.00 0.03 0.03 72 1012.4
20260503023005 18 163 0.0 4.8 0.00 0.03 0.03 70 1012.6
20260503021503 19 254 0.0 16.1 0.00 0.03 0.03 67 1012.5
20260503020003 20 205 0.0 1.6 0.00 0.03 0.03 65 1012.0
20260503014501 20 212 0.0 3.2 0.00 0.03 0.03 63 1011.6
20260503013003 21 273 0.0 0.0 0.00 0.03 0.03 60 1011.4
20260503011609 21 267 0.0 1.6 0.00 0.03 0.03 60 1011.3
20260503010122 21 226 0.0 1.6 0.00 0.03 0.03 59 1011.3
20260503004559 21 262 0.0 4.8 0.00 0.03 0.03 58 1011.3
20260503003100 21 248 0.0 3.2 0.00 0.03 0.03 59 1011.4
20260503001600 21 266 0.0 1.6 0.00 0.03 0.03 58 1011.3
20260502234554 21 220 0.0 4.8 0.00 0.03 0.03 58 1011.5
20260502233051 21 79 1.6 8.0 0.00 0.03 0.03 55 1011.7
20260502231547 20 266 0.0 4.8 0.00 0.03 0.03 56 1011.9
20260502230044 20 238 0.0 0.0 0.00 0.03 0.03 62 1012.1
20260502224542 20 275 1.6 4.8 0.00 0.03 0.03 62 1012.4
20260502223043 19 124 4.8 9.7 0.00 0.03 0.03 62 1012.6
20260502221536 20 122 0.0 8.0 0.00 0.03 0.03 62 1012.7
20260502220034 19 149 0.0 4.8 0.00 0.03 0.03 62 1013.1
20260502214537 19 79 0.0 4.8 0.00 0.03 0.03 63 1013.2
20260502213030 18 120 1.6 11.3 0.00 0.03 0.03 64 1013.4
20260502211528 17 277 0.0 6.4 0.00 0.03 0.03 66 1013.7
20260502210029 17 155 0.0 8.0 0.00 0.03 0.03 66 1013.9
20260502204518 17 270 0.0 4.8 0.00 0.03 0.03 69 1014.2